Regional Weather Roundup
Issued by NWS Midland/Odessa, TX

Home | Current Version | Previous Version | Text Only | Print | Product List | Glossary On
Versions: 1 2 3 4 5 6 7 8 9 10 11 12 13 14 15 16 17 18 19 20 21 22 23 24 25 26 27 28 29 30 31 32 33 34 35 36 37 38 39 40 41 42 43 44 45 46 47 48 49 50
000
ASUS44 KMAF 171701
RWRMAF
MIDLAND AREA WEATHER ROUNDUP
NATIONAL WEATHER SERVICE MIDLAND TX
1100 AM CST SUN DEC 17 2017

...IN SOUTHWEST TEXAS AND SOUTHEAST NEW MEXICO...

CITY           SKY/WX    TMP DP  RH WIND       PRES   REMARKS
ALPINE         SUNNY     58  35  41 S9        30.14S
ANDREWS        FAIR      48  33  54 W6        30.07R
ARTESIA        SUNNY     48  25  40 NE6       30.02F
BIG SPRING     CLOUDY    44  39  83 W8        30.08R WCI  39
CARLSBAD       SUNNY     57  33  40 S12       30.02R
DRYDEN           N/A     46  44  93 W8        30.06S
FORT STOCKTON  SUNNY     60  38  43 SW14      30.06R
GUAD PASS      SUNNY     50  30  46 SW9       30.08R
HOBBS          SUNNY     48  21  34 N9        30.05R
LAMESA         CLOUDY    45  30  57 NW7       30.05R
MARFA          NOT AVBL
MIDLAND AIRPK  SUNNY     53  40  62 NW6       30.07R
MIDLAND INTL   SUNNY     55  40  56 W6        30.05R
ODESSA         SUNNY     56  40  55 W7        30.05R
PECOS          SUNNY     53  38  55 CALM      30.05S
PRESIDIO       FAIR      57  39  52 CALM      30.09R
SEMINOLE       SUNNY     45  26  46 N5        30.08R
SNYDER         CLOUDY    41  37  86 W8        30.05R WCI  36
WINK           NOT AVBL
$$
...OTHER STATIONS IN TEXAS...

CITY           SKY/WX    TMP DP  RH WIND       PRES   REMARKS
ABILENE        CLOUDY    48  42  80 SW8       30.05R
AMARILLO       SUNNY     37  27  67 NW18G24   30.03R WCI  27
AUSTIN         CLOUDY    49  47  93 S7        30.14R FOG
BROWNSVILLE    CLOUDY    60  54  80 N7        30.12S
CORPUS CHRISTI CLOUDY    53  50  89 NE3       30.13S
DALLAS FTW     CLOUDY    49  45  86 S9        30.07S
DEL RIO        CLOUDY    46  45  96 SE6       30.13R
EL PASO        CLOUDY    47  35  63 CALM      30.02R
HOUSTON INT    FOG       51  51 100 CALM      30.11S VSB<1/4
LUBBOCK        MOSUNNY   43  27  53 N10       30.02R WCI  37
SAN ANGELO     CLOUDY    52  41  66 SW16      30.06R
SAN ANTONIO    DRIZZLE   48  46  93 W8        30.14S FOG
WACO           CLOUDY    48  46  93 S12       30.11R
WICHITA FALLS  CLOUDY    46  40  79 W6        30.00F
$$
...OTHER LOCATIONS IN NEW MEXICO...

CITY           SKY/WX    TMP DP  RH WIND       PRES   REMARKS
ALAMOGORDO     MOSUNNY   48  27  43 S5        30.04S
ALBUQUERQUE    MOSUNNY   39  15  37 SE3       30.04R
CANNON AFB     SUNNY     45  21  38 NE10      30.01S
CLOVIS         SUNNY     43  21  41 NE12      30.02R WCI  37
HOLLOMAN AFB   PTSUNNY   46  27  47 SE5       30.06R
ROSWELL        SUNNY     48  21  34 NE5       30.02R
RUIDOSO        CLOUDY    41  18  38 SW6       30.06R WCI  37
SANTA FE       CLOUDY    38  11  32 N16       30.00R WCI  29
TRUTH OR CONSE CLOUDY    44  20  38 CALM      30.04R
TUCUMCARI      SUNNY     42  20  41 E7        30.01R WCI  38
$$



USA.gov is the U.S. government's official web portal to all federal, state and local government web resources and services.